Regional Weather Roundup
Issued by NWS

Home | Current Version | Previous Version | Text Only | Print | Product List | Glossary Off
Versions: 1 2 3 4 5 6 7 8 9 10 11 12 13 14 15 16 17 18 19 20 21 22 23 24 25 26 27 28 29 30 31 32 33 34 35 36 37 38 39 40 41 42 43 44 45 46 47 48 49 50

000
ASUS43 KLMK 060810
RWRKY
KENTUCKY REGIONAL WEATHER ROUNDUP
NATIONAL WEATHER SERVICE LOUISVILLE KY
400 AM EDT MON JUL 06 2015

NOTE "FAIR" INDICATES FEW OR NO CLOUDS BELOW 12,000 FEET
WITH NO SIGNIFICANT WEATHER AND/OR OBSTRUCTIONS TO VISIBILITY.

KYZ001>023-026-027-061>063-070>075-060900-
WESTERN AND SOUTH CENTRAL KENTUCKY

CITY           SKY/WX    TMP DP  RH WIND       PRES   REMARKS
PADUCAH        PTCLDY    69  67  93 SW3       30.03R FOG
HENDERSON      CLEAR     70  64  83 CALM      30.02R
OWENSBORO      CLEAR     71  68  90 S5        30.04S
HOPKINSVILLE   CLEAR     70  69  96 SW3       30.05R
BOWLING GREEN  PTCLDY    67  65  93 NE6       30.05R FOG
GLASGOW        CLEAR     66  66 100 CALM      30.05F FOG
$$

KYZ024-025-028>034-038-045-046-053-060900-
NORTH CENTRAL KENTUCKY

CITY           SKY/WX    TMP DP  RH WIND       PRES   REMARKS
LOUISVILLE/SDF PTCLDY    69  65  86 CALM      30.03F
LOUISVILLE/LOU CLEAR     66  64  93 CALM      30.04F FOG
FORT KNOX      CLEAR     63  63 100 CALM      30.04R FOG
$$

KYZ035>037-039>044-047>052-055>060-089>105-060900-
NORTHEAST KENTUCKY

CITY           SKY/WX    TMP DP  RH WIND       PRES   REMARKS
LEXINGTON      CLEAR     64  62  93 SE3       30.06F FOG
COVINGTON      CLEAR     65  62  90 CALM      30.05S FOG
FRANKFORT      CLEAR     63  61  93 CALM      30.05S FOG
$$

KYZ054-064>069-076>088-106>120-060900-
SOUTHEAST KENTUCKY

CITY           SKY/WX    TMP DP  RH WIND       PRES   REMARKS
JACKSON        FOG       67  66  97 CALM      30.07F VSB 1/4
LONDON         FOG       67  64  90 CALM      30.08S VSB 1/4
SOMERSET       FOG       64  64 100 CALM      30.09R VSB 1/4
MIDDLESBORO    CLOUDY    64  64 100 CALM      30.09S FOG
MONTICELLO     FOG       67  67 100 CALM      30.11R VSB 1/4
$$




USA.gov is the U.S. government's official web portal to all federal, state and local government web resources and services.